Regional Weather Roundup
Issued by NWS

Home | Current Version | Previous Version | Graphics & Text | Print | Product List | Glossary On
Versions: 1 2 3 4 5 6 7 8 9 10 11 12 13 14 15 16 17 18 19 20 21 22 23 24 25 26 27 28 29 30 31 32 33 34 35 36 37 38 39 40 41 42 43 44 45 46 47 48 49 50
000
ASUS43 KOAX 212110
RWRNE

WEATHER ROUNDUP FOR NEBRASKA
NATIONAL WEATHER SERVICE OMAHA NE
400 PM CDT THU SEP 21 2017

NOTES: SATELLITE DATA IS BEING USED TO AUGMENT CLOUD COVER ABOVE
       12000 FEET.
       "FAIR" INDICATES FEW OR NO CLOUDS BELOW 12,000 FEET WITH NO
       SIGNIFICANT WEATHER AND/OR OBSTRUCTIONS TO VISIBILITY.


NEZ001>004-019>022-054>056-212200-
NEBRASKA PANHANDLE

CITY           SKY/WX    TMP DP  RH WIND       PRES   REMARKS
SCOTTSBLUFF    SUNNY     87  43  21 E17       29.66S
ALLIANCE       SUNNY     85  37  18 SE8       29.68F
CHADRON        SUNNY     91  27  10 S7        29.61F
GORDON         FAIR      87  42  20 SE3       29.67S
KIMBALL        SUNNY     87  31  13 S5G17     29.73S
SIDNEY         SUNNY     91  27  10 S14G20    29.71S
$$

NEZ057>060-069>072-079>082-212200-
SOUTHWEST NEBRASKA

CITY           SKY/WX    TMP DP  RH WIND       PRES   REMARKS
NORTH PLATTE   SUNNY     93  45  19 S18G25    29.65F
IMPERIAL       SUNNY     98  22   6 S21G31    29.63F HX  91
LEXINGTON      SUNNY     96  50  21 S22G29    29.66F HX  92
MCCOOK         LGT RAIN  99  39  12 S29G40    29.64F HX  94
OGALLALA       SUNNY     92  38  15 SE10      29.66F
$$

NEZ005>010-023>029-035>040-094-212200-
NORTH CENTRAL NEBRASKA

CITY           SKY/WX    TMP DP  RH WIND       PRES   REMARKS
VALENTINE      SUNNY     90  49  24 S17       29.64F
AINSWORTH      SUNNY     87  53  31 S16G24    29.66F
BROKEN BOW     SUNNY     91  54  28 S23G29    29.68S
O`NEILL        SUNNY     90  60  36 S23G30    29.67S
ORD            SUNNY     91  57  31 S18G30    29.66F
THEDFORD       SUNNY     89  50  26 S12G18    29.68S
$$

NEZ041-046>049-061>064-073>077-083>087-212200-
SOUTH CENTRAL NEBRASKA

CITY           SKY/WX    TMP DP  RH WIND       PRES   REMARKS
GRAND ISLAND   SUNNY     91  68  46 S20G30    29.70F HX  95
AURORA         SUNNY     91  67  44 S21G28    29.70F HX  94
HASTINGS       SUNNY     94  63  35 S18G30    29.70F HX  95
HEBRON         SUNNY     95  66  38 S18G30    29.72F HX  98
HOLDREGE       SUNNY     95  49  20 S18G29    29.67F HX  92
KEARNEY        SUNNY     95  62  33 S25G33    29.67F HX  96
YORK           SUNNY     91  70  49 S21G31    29.72S HX  97
$$

NEZ011>018-030>034-042>045-212200-
NORTHEAST NEBRASKA

CITY           SKY/WX    TMP DP  RH WIND       PRES   REMARKS
NORFOLK        SUNNY     90  69  50 S16G28    29.68F HX  94
ALBION         SUNNY     90  68  48 S17G23    29.69F HX  94
BLAIR          MOSUNNY   90  71  54 SE23G29   29.74F HX  96
COLUMBUS       SUNNY     91  71  51 SE15G29   29.70F HX  97
FREMONT        MOSUNNY   91  69  47 SE18G25   29.73S HX  96
TEKAMAH        SUNNY     89  71  55 S17G30    29.72F HX  95
WAYNE          SUNNY     87  73  62 SE21G30   29.70F HX  94
$$

NEZ050>053-065>068-078-088>093-212200-
SOUTHEAST NEBRASKA

CITY           SKY/WX    TMP DP  RH WIND       PRES   REMARKS
LINCOLN        SUNNY     94  69  44 S26G35    29.72F HX  99
OMAHA EPPLEY   MOSUNNY   91  71  51 S24G32    29.74F HX  97
BEATRICE       SUNNY     93  72  49 S25G31    29.74F HX 101
FALLS CITY     MOSUNNY   91  72  53 S20G30    29.78F HX  98
NEBRASKA CITY  SUNNY     90  73  57 S18G33    29.77F HX  97
PLATTSMOUTH    MOSUNNY   92  72  51 SE15G25   29.76F HX 100
$$

NEZ044-045-051>053-067-212200-
OMAHA AREA

CITY           SKY/WX    TMP DP  RH WIND       PRES   REMARKS
OMAHA EPPLEY   MOSUNNY   91  71  51 S24G32    29.74F HX  97
BLAIR          MOSUNNY   90  71  54 SE23G29   29.74F HX  96
FREMONT        MOSUNNY   91  69  47 SE18G25   29.73S HX  96
MILLARD        MOSUNNY   93  73  52 SE20G26   29.74F HX 102
OFFUTT AFB     SUNNY     92  72  51 SE21      29.74F HX  99
PLATTSMOUTH    MOSUNNY   92  72  51 SE15G25   29.76F HX 100
WAHOO          FAIR      92  69  45 SE20G30   29.72F HX  97
$$




USA.gov is the U.S. government's official web portal to all federal, state and local government web resources and services.